Weather History for South Bend, IN

Change the Weather History Date:

Monday, August 19, 2013

  Actual Average Record
Temperature  
Mean Temperature 70 °F 71 °F  
Max Temperature 82 °F 81 °F 98 °F (1983)
Min Temperature 57 °F 62 °F 44 °F (1933)
Degree Days  
Heating Degree Days 0 0  
Month to date heating degree days 15 0  
Since 1 June heating degree days 66 49  
Since 1 July heating degree days 29 5  
Cooling Degree Days 5 7  
Month to date cooling degree days 67 135  
Year to date cooling degree days 557 609  
Since 1 June cooling degree days 461 553  
Growing Degree Days 20 (Base 50)    
Moisture  
Dew Point 58 °F    
Average Humidity 67    
Maximum Humidity 90    
Minimum Humidity 42    
Precipitation  
Precipitation 0.00 in 0.12 in 1.18 in (1900)
Month to date precipitation 2.64 2.35  
Year to date precipitation 26.53 23.86  
Snow  
Snow 0.00 in - - ()
Month to date snowfall 0.0  
Since 1 June snowfall 0.0  
Snow Depth 0.00 in    
Sea Level Pressure  
Sea Level Pressure 30.11 in    
Wind  
Wind Speed 3 mph (West)    
Max Wind Speed 10 mph    
Max Gust Speed 22 mph    
Visibility 9 miles    
Events      
T = Trace of Precipitation, MM = Missing Value Source: NWS Daily Summary

Daily Weather History Graph

Daily Weather History Graph

Search for Another Location

Airport:

Trip Planner

Search our weather history database for the weather conditions in past years. The results will help you decide how hot, cold, wet, or windy it might be!

Date:

Astronomy

Aug. 19, 2013 Rise Set
Actual Time 6:58 AM EDT 8:38 PM EDT
Civil Twilight 6:28 AM EDT 9:08 PM EDT
Nautical Twilight 5:52 AM EDT 9:43 PM EDT
Astronomical Twilight 5:14 AM EDT 10:22 PM EDT
Moon 7:29 PM EDT (8/19) 5:15 AM EDT (8/19)
Length of Visible Light 14h 39m
Length of Day
13h 40m
Waxing Gibbous, 97% of the Moon is Illuminated
Aug 19
Waxing Gibbous
Aug 20
Full
Aug 28
Last Quarter
Sep 5
New
Sep 12
First Quarter

Hourly Weather History & Observations

Time (EDT) Temp. Heat Index Dew Point Humidity Pressure Visibility Wind Dir Wind Speed Gust Speed Precip Events Conditions
12:54 AM 62.1 °F - 57.0 °F 84% 30.13 in 10.0 mi Calm Calm - N/A   Clear
1:54 AM 61.0 °F - 55.9 °F 83% 30.13 in 10.0 mi Calm Calm - N/A   Clear
2:54 AM 59.0 °F - 55.0 °F 87% 30.12 in 9.0 mi Calm Calm - N/A   Clear
3:54 AM 60.1 °F - 55.0 °F 83% 30.12 in 8.0 mi Calm Calm - N/A   Clear
4:54 AM 59.0 °F - 55.9 °F 90% 30.12 in 7.0 mi Calm Calm - N/A   Clear
5:54 AM 57.9 °F - 54.0 °F 87% 30.13 in 7.0 mi Calm Calm - N/A   Clear
6:54 AM 57.0 °F - 54.0 °F 89% 30.13 in 7.0 mi Calm Calm - N/A   Clear
7:54 AM 60.1 °F - 55.9 °F 86% 30.14 in 6.0 mi Calm Calm - N/A   Clear
8:54 AM 66.0 °F - 59.0 °F 78% 30.14 in 7.0 mi Calm Calm - N/A   Clear
9:54 AM 71.1 °F - 61.0 °F 70% 30.14 in 10.0 mi Calm Calm - N/A   Clear
10:54 AM 75.9 °F - 63.0 °F 64% 30.13 in 10.0 mi West 3.5 mph - N/A   Clear
11:54 AM 78.1 °F - 63.0 °F 60% 30.13 in 10.0 mi West 6.9 mph - N/A   Clear
12:54 PM 79.0 °F - 59.0 °F 50% 30.12 in 10.0 mi WSW 5.8 mph - N/A   Scattered Clouds
1:54 PM 80.1 °F 81.1 °F 61.0 °F 52% 30.12 in 10.0 mi WNW 6.9 mph - N/A   Mostly Cloudy
2:54 PM 82.0 °F 82.4 °F 60.1 °F 47% 30.11 in 10.0 mi Variable 4.6 mph - N/A   Clear
3:54 PM 82.0 °F 82.0 °F 57.9 °F 44% 30.10 in 10.0 mi West 9.2 mph - N/A   Clear
4:54 PM 82.0 °F 82.0 °F 57.9 °F 44% 30.09 in 10.0 mi Variable 5.8 mph - N/A   Clear
5:54 PM 81.0 °F 81.1 °F 57.9 °F 45% 30.07 in 10.0 mi NW 4.6 mph - N/A   Clear
6:54 PM 80.1 °F 80.7 °F 59.0 °F 48% 30.07 in 10.0 mi WSW 4.6 mph - N/A   Clear
7:54 PM 78.1 °F - 59.0 °F 52% 30.06 in 10.0 mi SSW 3.5 mph - N/A   Clear
8:54 PM 71.1 °F - 62.1 °F 73% 30.06 in 10.0 mi Calm Calm - N/A   Clear
9:54 PM 69.1 °F - 61.0 °F 75% 30.08 in 10.0 mi Calm Calm - N/A   Clear
10:54 PM 70.0 °F - 61.0 °F 73% 30.07 in 10.0 mi Calm Calm - N/A   Partly Cloudy
11:54 PM 69.1 °F - 61.0 °F 75% 30.08 in 10.0 mi Calm Calm - N/A   Scattered Clouds